This is the latest recevied weather packets stored in our database for station/object KC8QDR-1. If no packets are shown the sender has not sent any weather packets the latest 1 day(s).
| Time | Temp. | Humidity | Pressure | Rain* | Wind** | Luminosity | Snow |
|---|---|---|---|---|---|---|---|
| 1777971525 | 18.33° C | 63% | 1012.7 hPa | 0 mm | 1.79 m/s, 187° | - | - |
| 1777970924 | 18.33° C | 64% | 1012.7 hPa | 0 mm | 3.13 m/s, 197° | - | - |
| 1777970325 | 18.33° C | 64% | 1012.8 hPa | 0 mm | 1.79 m/s, 201° | - | - |
| 1777969725 | 18.33° C | 64% | 1012.5 hPa | 0 mm | 2.24 m/s, 242° | - | - |
| 1777969125 | 18.33° C | 65% | 1012.4 hPa | 0 mm | 1.79 m/s, 196° | - | - |
| 1777968524 | 18.33° C | 66% | 1012.4 hPa | 0 mm | 2.24 m/s, 200° | - | - |
| 1777967925 | 17.78° C | 67% | 1012.3 hPa | 0 mm | 1.79 m/s, 193° | - | - |
| 1777967324 | 17.78° C | 67% | 1012.4 hPa | 0 mm | 1.34 m/s, 200° | - | - |
| 1777966725 | 17.78° C | 67% | 1012.2 hPa | 0 mm | 1.34 m/s, 196° | - | - |
| 1777966124 | 17.78° C | 67% | 1012.2 hPa | 0 mm | 1.79 m/s, 213° | - | - |
| 1777965525 | 17.78° C | 66% | 1012.2 hPa | 0 mm | 1.34 m/s, 201° | - | - |
| 1777964924 | 17.78° C | 67% | 1012.2 hPa | 0 mm | 1.79 m/s, 194° | - | - |
| 1777964325 | 17.78° C | 67% | 1012.3 hPa | 0 mm | 2.68 m/s, 184° | - | - |
| 1777963724 | 17.78° C | 67% | 1012.4 hPa | 0 mm | 2.24 m/s, 176° | - | - |
| 1777963125 | 18.33° C | 66% | 1012.4 hPa | 0 mm | 2.24 m/s, 201° | - | - |
| 1777962524 | 17.78° C | 66% | 1012.6 hPa | 0 mm | 2.24 m/s, 183° | - | - |
| 1777961925 | 18.33° C | 66% | 1012.7 hPa | 0 mm | 1.79 m/s, 239° | - | - |
| 1777961324 | 17.78° C | 66% | 1012.8 hPa | 0 mm | 2.24 m/s, 179° | - | - |
| 1777960725 | 17.78° C | 68% | 1013 hPa | 0 mm | 1.79 m/s, 186° | - | - |
| 1777960125 | 17.78° C | 67% | 1013.2 hPa | 0 mm | 4.02 m/s, 183° | - | - |
| 1777959525 | 17.78° C | 67% | 1013.3 hPa | 0 mm | 4.02 m/s, 193° | - | - |
| 1777959038 | 17.78° C | 68% | 1013.3 hPa | 0 mm | 2.68 m/s, 179° | - | - |
| 1777958924 | 17.78° C | 68% | 1013.3 hPa | 0 mm | 2.68 m/s, 179° | - | - |
* Rain latest hour (hover to see other rain measurements)
** Current wind speed in m/s (hover to see current wind gust speed)